Location: Poprad
(49.0500°N, 20.3000°E)
Time: 22:11:30
(UTC+01:00)

ISS - Visible Passes

Search period start: 19 January 2022 00:00
Search period end: 29 January 2022 00:00
Orbit: 413 x 422 km, 51.6° (Epoch: 19 January)

Date Brightness Start Highest point End Pass type
(mag) Time Alt. Az. Time Alt. Az. Time Alt. Az.
19 Jan -1.7 17:28:40 10° S 17:30:41 15° SE 17:31:44 14° ESE visible
19 Jan -1.1 19:03:40 10° WSW 19:04:41 18° WSW 19:04:41 18° WSW visible
20 Jan -3.3 18:15:55 10° SW 18:18:56 47° SSE 18:18:56 47° SSE visible
21 Jan -2.7 17:28:22 10° SSW 17:31:24 33° SE 17:33:11 19° E visible
21 Jan -1.3 19:04:42 10° W 19:06:08 23° W 19:06:08 23° W visible
22 Jan -4.0 18:16:54 10° WSW 18:20:15 89° NNW 18:20:23 81° ENE visible
23 Jan -3.7 17:29:15 10° WSW 17:32:33 68° SSE 17:34:41 20° ENE visible
23 Jan -1.4 19:06:10 10° W 19:07:38 23° WNW 19:07:38 23° WNW visible
24 Jan -3.6 18:18:26 10° W 18:21:45 59° N 18:21:58 58° N visible
25 Jan -3.7 17:30:48 10° W 17:34:07 71° NNW 17:36:20 20° ENE visible
25 Jan -1.4 19:07:52 10° WNW 19:09:18 22° WNW 19:09:18 22° WNW visible
26 Jan -3.5 18:20:19 10° WNW 18:23:35 52° N 18:23:44 51° N visible
27 Jan -3.4 17:32:48 10° W 17:36:04 53° N 17:38:14 19° ENE visible
27 Jan -1.4 19:09:47 10° WNW 19:11:12 23° WNW 19:11:12 23° WNW visible
28 Jan -3.7 18:22:23 10° WNW 18:25:42 60° N 18:25:48 59° NNE visible
